Voltar ao catálogo

STARLINK-2735

AtivoComunicaçõesVLEO
NORAD 48667·PAYLOAD·🇺🇸 United States

Lançado May 26, 2021 de Cape Canaveral Space Force Station

Loading…

Próximas Passagens (próximas 24 horas)

TLE

AtualizadoSource: CelesTrak SupGP

Época: Sep 14, 2026, 12:14 UTC

1 48667C 21044AF  26257.51020833  .00011835  00000+0  38067-3 0  2577
2 48667  53.1593 316.6907 0001357  73.6922  80.2039 15.31687623    11

Acompanhe STARLINK-2735 em tempo real com AllMySat

Download on the App Store